Location: Mount Cross
(36.6390°N, 79.4878°W)
Time: 07:59:17
(UTC+00:00)

Vanguard 1 Rocket - Pass Details

Date: 30 March 2023
Orbit: 654 x 4221 km, 34.3° (Epoch: 01 June)

Event Time Altitude Azimuth Distance (km) Brightness Sun altitude
Rises 07:38:12 0° 282° (WNW) 7,570 11.8 -38.8°
Enters shadow 07:40:38 - 281° (WNW) 6,956 11.6 -38.4°
Reaches altitude 10° 07:44:07 10° 280° (W) 6,042 - -37.9°
Maximum altitude 08:00:05 59° 207° (SSW) 2,105 - -35.5°
Exits shadow 08:02:52 46° 158° (SSE) 2,094 8.9 -35.0°
Drops below altitude 10° 08:08:09 10° 129° (SE) 3,209 10.3 -34.2°
Sets 08:10:20 0° 125° (SE) 3,901 10.9 -33.8°
